[[{"header":{"parameterUnit":"m.s-1","parameterCategory":1,"la1":30.2992,"la2":30.254,"lo1":-89.0895,"lo2":-89.0443,"dy":0.0025,"dx":0.0025,"nx":19,"ny":19,"refTime":"2026-05-20T09:00:00:Z","depth":0,"parameterNumber":2,"parameterNumberName":"U-component_of_WINDS"},"data":[0,0,0,-1.5929,-1.593,-1.5951,-1.5951,-1.5984,-1.5985,0,0,0,0,0,0,0,0,0,0,0,-1.5927,-1.5928,-1.5929,-1.593,-1.5951,-1.5951,-1.5984,-1.5985,0,0,0,0,0,0,0,0,0,0,0,-1.5927,-1.5928,-1.5928,-1.593,-1.5951,-1.5951,-1.5984,-1.5966,0,0,0,0,0,0,0,0,0,0,-1.5944,-1.5947,-1.5928,-1.5928,-1.593,-1.5951,-1.5951,-1.5965,-1.5967,-1.5978,0,-1.5989,0,-1.5987,-1.5987,-1.5988,0,0,0,-1.5927,-1.5945,-1.5947,-1.5928,-1.593,-1.5951,-1.594,-1.5966,-1.5969,-1.5981,-1.5989,-1.599,-1.5988,-1.5988,-1.5988,-1.6062,-1.6062,0,0,-1.5925,-1.5933,-1.5945,-1.5949,-1.5946,-1.594,-1.5941,-1.5967,-1.5977,-1.5989,-1.5991,-1.5989,-1.5988,-1.5988,-1.6061,-1.6062,0,0,0,-1.5924,-1.5933,-1.5934,-1.5948,-1.5951,-1.5941,-1.5942,-1.5976,-1.5976,-1.5991,-1.5989,-1.5988,-1.5989,-1.6061,-1.6062,-1.6094,0,0,0,-1.5923,-1.5932,-1.5933,-1.5939,-1.5951,-1.5964,-1.595,-1.5974,-1.5977,-1.5989,-1.5988,-1.5989,-1.606,-1.6061,-1.6092,-1.6108,0,0,0,-1.5925,-1.5932,-1.5937,-1.5939,-1.5948,-1.5963,-1.5964,-1.5974,-1.5975,-1.5988,-1.5989,-1.606,-1.6061,-1.609,-1.6105,-1.613,0,0,0,-1.5928,-1.5965,-1.5937,-1.5978,-1.5948,-1.5984,-1.5964,-1.599,-1.6004,-1.5988,-1.606,-1.6062,-1.609,-1.6103,-1.6128,-1.6153,-1.6163,0,0,-1.598,-1.5972,-1.5995,-1.5971,-1.6013,-1.598,-1.6027,-1.6032,-1.6026,-1.605,-1.6052,-1.6093,-1.6105,-1.613,-1.6222,-1.6231,0,0,0,-1.6015,-1.6031,-1.6041,-1.6055,-1.6061,-1.6067,-1.6064,-1.6066,-1.6087,-1.604,-1.6109,-1.6116,-1.613,-1.6141,-1.6148,-1.616,-1.6067,-1.6067,-1.6067,-1.6099,-1.6089,-1.6127,-1.612,-1.6135,-1.6132,-1.6142,-1.6145,-1.613,-1.6147,-1.6154,-1.6211,-1.6224,-1.623,-1.6242,-1.6166,-1.6166,-1.6166,-1.6166,-1.6174,-1.6196,-1.6177,-1.6207,-1.6196,-1.6221,-1.622,-1.6209,-1.623,-1.6205,-1.6217,-1.6189,-1.624,-1.625,-1.6169,-1.6168,-1.6168,-1.6168,-1.6167,-1.6228,-1.6237,-1.6239,-1.6259,-1.6276,-1.6267,-1.6289,-1.6278,-1.6268,-1.628,-1.6286,-1.6286,-1.6284,-1.6284,-1.6284,-1.6284,-1.6284,-1.6285,-1.6285,-1.6283,-1.6284,-1.6304,-1.6314,-1.6321,-1.6331,-1.6328,-1.6336,-1.6341,-1.6332,-1.6332,-1.6316,-1.6247,-1.623,-1.6288,-1.6287,-1.6287,-1.6287,-1.6286,-1.6362,-1.6343,-1.6373,-1.6381,-1.6391,-1.6408,-1.6395,-1.6411,-1.6415,-1.6426,-1.6408,-1.6359,-1.635,-1.6344,-1.6329,-1.641,-1.641,-1.641,-1.641,-1.6408,-1.6402,-1.6431,-1.6445,-1.6457,-1.6448,-1.6482,-1.6481,-1.6476,-1.6479,-1.6466,-1.6446,-1.644,-1.6435,-1.6427,-1.6413,-1.6513,-1.6513,-1.6513,-1.6456,-1.6451,-1.6483,-1.6478,-1.6485,-1.6492,-1.6524,-1.654,-1.6531,-1.6517,-1.648,-1.6476,-1.6444,-1.6434,-1.6419,-1.6407,-1.6382,0,0]},{"header":{"parameterUnit":"m.s-1","parameterCategory":1,"la1":30.2992,"la2":30.254,"lo1":-89.0895,"lo2":-89.0443,"dy":0.0025,"dx":0.0025,"nx":19,"ny":19,"refTime":"2026-05-20T09:00:00:Z","depth":0,"parameterNumber":3,"parameterNumberName":"V-component_of_WINDS"},"data":[0,0,0,3.09,3.0901,3.0927,3.0927,3.0969,3.097,0,0,0,0,0,0,0,0,0,0,0,3.0899,3.0899,3.09,3.0901,3.0927,3.0927,3.0969,3.097,0,0,0,0,0,0,0,0,0,0,0,3.0898,3.0899,3.09,3.0901,3.0927,3.0927,3.0969,3.0946,0,0,0,0,0,0,0,0,0,0,3.0919,3.0924,3.0899,3.09,3.0901,3.0927,3.0927,3.0945,3.0947,3.0962,0,3.0977,0,3.0974,3.0973,3.0973,0,0,0,3.0896,3.0922,3.0923,3.09,3.0901,3.0927,3.0913,3.0946,3.0949,3.0965,3.0977,3.0979,3.0975,3.0974,3.0974,3.1075,3.1075,0,0,3.0894,3.0907,3.0921,3.0926,3.0923,3.0913,3.0914,3.0948,3.0961,3.0977,3.0979,3.0975,3.0974,3.0974,3.1074,3.1075,0,0,0,3.0893,3.0906,3.0906,3.0924,3.0928,3.0914,3.0915,3.096,3.0959,3.098,3.0976,3.0974,3.0975,3.1073,3.1074,3.1121,0,0,0,3.0892,3.0905,3.0906,3.0913,3.0928,3.0945,3.0927,3.0957,3.096,3.0976,3.0974,3.0975,3.1072,3.1074,3.1118,3.1141,0,0,0,3.0895,3.0905,3.0912,3.0914,3.0926,3.0944,3.0945,3.0957,3.0958,3.0973,3.0976,3.1072,3.1073,3.1115,3.1136,3.1171,0,0,0,3.09,3.0953,3.0913,3.0969,3.0926,3.0973,3.0944,3.0979,3.0997,3.0974,3.1072,3.1074,3.1114,3.1134,3.1168,3.1202,3.1217,0,0,3.0973,3.0962,3.0994,3.0959,3.1017,3.0968,3.1032,3.1037,3.1027,3.1059,3.1061,3.1119,3.1136,3.117,3.1299,3.1311,0,0,0,3.1021,3.1045,3.1057,3.1076,3.1082,3.1088,3.1083,3.1085,3.1111,3.1046,3.114,3.115,3.117,3.1185,3.1196,3.1211,3.1082,3.1082,3.1082,3.1142,3.1127,3.1179,3.1167,3.1185,3.1179,3.1192,3.1193,3.1172,3.1195,3.1204,3.1284,3.1303,3.1311,3.1327,3.1221,3.1221,3.1221,3.1221,3.1247,3.1277,3.1248,3.1288,3.1271,3.1305,3.13,3.1284,3.1312,3.1276,3.1292,3.1254,3.1325,3.1338,3.1225,3.1224,3.1224,3.1223,3.1223,3.1324,3.1336,3.1337,3.1363,3.1384,3.1369,3.1398,3.1381,3.1366,3.1382,3.139,3.1389,3.1386,3.1387,3.1387,3.1387,3.1388,3.1388,3.1388,3.1403,3.1403,3.143,3.144,3.145,3.146,3.1454,3.1463,3.1468,3.1454,3.1454,3.143,3.1335,3.1311,3.1392,3.1392,3.1391,3.1391,3.139,3.1515,3.1487,3.1527,3.1537,3.1547,3.1569,3.1548,3.1567,3.1572,3.1587,3.1559,3.1491,3.1478,3.147,3.145,3.1563,3.1563,3.1563,3.1563,3.1579,3.1571,3.1609,3.1625,3.164,3.1624,3.167,3.1666,3.1657,3.1658,3.164,3.1612,3.1604,3.1596,3.1585,3.1566,3.1705,3.1706,3.1706,3.1647,3.1639,3.1682,3.1673,3.168,3.1686,3.1728,3.1748,3.1731,3.1711,3.1659,3.1653,3.1608,3.1595,3.1573,3.1556,3.1521,0,0]}]]